User: anonymous   Login
Location: Unspecified
(0.0000°N, 0.0000°E)
Time: 11:30:23
(UTC+01:00)
Language:

ARIANE 44L R/B - Orbit

View from above orbital plane
View from above orbital plane
View from above satellite
View from above satellite

Ground track
Ground track

The orbit data is extracted from the following two-line orbital elements,

1 26901U 01039B   17321.83742948  .00006384  00000-0  14655-2 0  9994
2 26901   7.4311  40.7399 6864795 161.1903 248.2107  2.82049193147907
Epoch (UTC): 17 November 2017 20:05:53
Eccentricity: 0.6864795
inclination: 7.4311°
perigee height: 256 km
apogee height: 29308 km
right ascension of ascending node: 40.7399°
argument of perigee: 161.1903°
revolutions per day: 2.82049193
mean anomaly at epoch: 248.2107°
orbit number at epoch: 14790

The dashed part of the orbit path shows where the satellite is in the earth's shadow,  

DLR